EHI
0 0 0 0 0 0 0 0 0 0 0 0 0 0 0 0 0 1 2 4 8 12 14 20 26 29 25 19 15 12 8 6 4 2 0 0 0 0 0 0 0 0 0 0 0 0 0 0 0
0 0 0 0 0 0 0 0 0 0 0 0 0 0 0 0 0 1 3 7 12 16 18 22 27 30 25 18 13 9 7 6 5 3 2 1 1 1 1 0 0 0 0 0 0 0 0 0 0
0 0 0 0 0 0 0 0 0 0 0 0 0 0 0 0 0 2 6 13 19 22 23 25 29 29 25 19 13 8 6 6 6 6 5 4 3 2 1 0 0 0 0 0 0 0 0 0 0
0 0 0 0 0 0 0 0 0 0 0 0 0 0 0 0 2 6 13 21 26 26 25 28 31 30 24 20 15 10 7 7 7 7 6 6 4 2 1 0 0 0 0 0 0 0 0 0 0
1 0 0 0 0 0 0 0 0 0 0 0 0 0 1 3 7 13 21 27 30 29 28 29 33 32 26 21 17 12 8 7 8 8 7 5 3 1 0 0 0 0 0 0 0 0 0 0 0
2 1 0 0 0 0 0 0 0 0 0 0 0 1 2 6 12 19 24 29 31 30 29 29 31 32 28 23 19 14 9 8 9 9 7 5 2 1 0 0 0 0 0 0 0 0 0 0 0
2 1 0 0 0 0 0 0 0 0 0 0 0 1 2 6 13 19 24 29 31 31 30 30 29 28 25 21 17 13 9 7 8 8 6 4 1 0 0 0 0 0 0 0 0 0 0 0 0
1 0 0 0 0 0 0 0 0 0 0 0 0 0 1 5 12 20 25 27 28 29 30 31 28 24 19 16 13 11 8 6 5 6 4 2 0 0 0 0 0 0 0 0 0 0 0 0 0
0 0 0 0 0 0 0 0 0 0 0 0 0 0 1 5 13 21 24 24 24 25 27 28 27 21 16 13 11 8 6 4 3 3 2 0 0 0 0 0 0 0 0 0 0 0 0 0 0
0 0 0 0 0 0 0 0 0 0 0 0 0 1 3 8 15 20 20 19 20 22 24 25 25 21 16 13 11 7 4 2 1 1 0 0 0 0 0 0 0 0 0 0 0 0 0 0 0
0 0 0 0 0 0 0 0 0 0 0 0 0 3 8 12 15 17 16 15 17 20 23 24 24 21 16 13 11 7 4 1 0 0 0 0 0 0 0 1 1 1 0 0 0 0 0 0 0
0 0 0 0 0 0 0 0 0 0 0 0 0 3 8 12 14 15 14 14 13 16 20 23 23 19 14 11 10 8 4 1 0 0 0 0 0 0 0 1 1 1 0 0 0 0 0 0 0
0 0 0 0 0 0 0 0 0 0 0 0 0 2 4 8 11 13 13 12 11 12 16 20 20 15 11 10 10 8 4 1 0 0 0 0 0 0 0 0 0 0 0 0 0 0 0 0 0
0 0 0 0 0 0 0 0 0 0 0 0 0 0 1 4 8 11 11 10 9 9 12 16 17 14 11 9 9 7 3 0 0 0 0 0 0 0 0 0 0 0 0 0 0 0 0 0 0
0 0 0 0 0 0 0 0 0 0 0 0 0 0 1 3 7 9 10 9 7 7 8 12 14 13 10 7 6 4 1 0 0 0 0 0 0 0 0 0 0 0 0 0 0 0 0 0 0
0 0 0 0 0 0 0 0 0 0 0 0 0 0 2 3 6 8 8 7 6 6 7 9 10 9 6 4 3 2 0 0 0 0 0 0 0 0 0 0 0 0 0 0 0 0 0 0 0
0 0 0 0 0 0 0 0 0 0 0 0 0 0 1 2 2 4 6 6 6 6 6 8 8 6 4 2 1 0 0 0 0 0 0 0 0 0 0 0 0 0 0 0 0 0 0 0 0
0 0 0 0 0 0 0 0 0 0 0 0 0 0 0 0 0 1 4 5 6 6 6 7 8 5 3 2 1 0 0 0 0 0 0 0 0 0 0 0 0 0 0 0 0 0 0 0 0
0 0 0 0 0 0 0 0 0 0 0 0 0 0 0 0 0 1 3 4 4 4 5 6 7 5 2 1 0 0 0 0 0 0 0 0 0 0 0 0 0 0 0 0 0 0 0 0 0
0 0 0 0 0 0 0 0 0 0 0 0 0 0 0 0 0 1 2 3 3 3 3 4 5 4 2 1 0 0 0 0 0 0 0 0 0 0 0 0 0 0 0 0 0 0 0 0 0
0 0 0 0 0 0 0 0 0 0 0 0 0 0 0 0 0 0 1 1 2 2 1 2 3 3 2 1 0 0 0 0 0 0 0 0 0 0 0 0 0 0 0 0 0 0 0 0 0
0 0 0 0 0 0 0 0 0 0 0 0 0 0 0 0 0 0 0 0 1 1 0 0 1 1 2 1 0 0 0 0 0 0 0 0 0 0 0 0 0 0 0 0 0 0 0 0 0
0 0 0 0 0 0 0 0 0 0 0 0 0 0 0 0 0 0 0 0 0 0 0 0 0 0 1 1 1 0 0 0 0 0 0 0 0 0 0 0 0 0 0 0 0 0 0 0 0
0 0 0 0 0 0 0 0 0 0 0 0 0 0 0 0 0 0 0 0 0 0 0 1 0 0 1 1 1 0 0 0 0 0 0 0 0 0 0 0 0 0 0 0 0 0 0 0 0
0 0 0 0 0 0 0 0 0 0 0 0 0 0 0 0 0 0 0 0 0 0 0 0 0 0 0 0 0 0 0 0 0 0 0 0 0 0 0 0 0 0 0 0 0 0 0 0 0
0 0 0 0 0 0 0 0 0 0 0 0 0 0 0 0 0 0 0 0 0 0 0 0 0 0 0 0 0 0 0 0 0 0 0 0 0 0 0 0 0 0 0 0 0 0 0 0 0
0 0 0 0 0 0 0 0 0 0 0 0 0 0 0 0 0 0 0 0 0 0 0 0 0 0 0 0 0 0 0 0 0 0 0 0 0 0 0 0 0 0 0 0 0 0 0 0 0
0 0 0 0 0 0 0 0 0 0 0 0 0 0 0 0 0 0 0 0 0 0 0 0 0 0 0 0 0 0 0 0 0 0 0 0 0 0 0 0 0 0 0 0 0 0 0 0 0
0 0 0 0 0 0 0 0 0 0 0 0 0 0 0 0 0 0 0 0 0 0 0 0 0 0 0 0 0 0 0 0 0 0 0 0 0 0 0 0 0 0 0 0 0 0 0 0 0
0 0 0 0 0 0 0 0 0 0 0 0 0 0 0 0 0 0 0 0 0 0 0 0 0 0 0 0 0 0 0 0 0 0 0 0 0 0 0 0 0 0 0 0 0 0 0 0 0
Wind_Speed
6 3 2 3 5 3 4 6 4 3 2 2 2 6 7 4 4 4 3 10 13 13 12 14 16 17 17 16 16 16 15 15 15 14 14 14 14 14 14 13 13 13 13 13 13 13 14 13 13
2 2 3 4 4 3 6 6 6 6 4 2 2 4 5 3 2 6 6 11 15 13 12 13 16 17 17 17 16 16 15 15 14 14 14 14 14 14 13 13 13 13 13 13 13 13 13 12 12
2 0 3 4 4 7 6 6 8 5 3 1 2 3 4 4 4 4 7 14 13 11 10 12 16 17 17 17 17 16 15 15 14 14 14 14 14 13 13 13 13 13 13 13 12 12 12 11 11
2 2 3 2 8 7 6 4 3 2 2 0 4 4 2 0 3 6 13 14 13 10 9 12 17 18 18 17 17 16 15 15 15 14 14 14 14 13 13 13 12 12 12 12 12 11 11 11 11
2 3 2 4 8 6 5 5 3 2 1 0 4 5 2 4 6 13 14 14 14 10 9 12 16 17 17 17 17 16 15 15 14 14 14 14 14 13 13 12 12 12 12 12 12 11 11 11 11
2 3 4 7 8 5 5 5 3 2 2 0 4 5 1 1 9 12 12 12 12 11 10 11 15 15 15 16 16 15 15 15 14 14 13 13 13 13 12 12 12 11 11 11 11 10 10 10 10
3 4 5 5 4 5 5 3 3 3 2 2 5 6 2 2 6 10 11 11 11 10 9 8 9 11 14 14 14 14 14 14 13 13 12 12 12 12 12 11 11 11 10 10 10 10 9 9 9
3 3 4 4 5 6 3 2 2 3 3 1 4 8 6 5 6 10 11 11 10 9 8 8 8 8 8 9 12 12 12 12 12 12 11 10 10 10 10 9 10 10 9 9 9 8 8 8 8
2 2 6 6 5 4 2 2 2 0 2 2 1 4 6 8 9 12 11 9 9 10 8 8 8 7 7 7 10 10 11 11 11 10 11 9 5 5 5 7 8 9 9 8 8 8 7 7 7
3 5 8 4 2 2 2 2 2 1 1 2 3 3 6 9 11 13 13 13 12 12 9 7 8 8 7 7 6 5 5 6 5 5 6 4 4 3 4 6 8 8 7 7 7 7 6 5 3
3 6 4 4 3 2 2 2 1 4 3 5 5 6 8 9 10 11 11 12 13 12 11 9 8 8 7 5 5 3 3 4 4 5 5 4 3 3 3 2 3 3 4 3 4 4 2 2 2
3 5 4 4 3 3 3 2 2 3 5 5 8 12 12 11 11 11 11 10 10 12 11 10 9 8 7 6 5 4 4 3 4 4 5 4 3 3 3 2 2 2 2 2 2 2 2 2 2
5 5 5 6 4 5 3 3 3 4 3 3 7 10 12 11 9 8 9 9 10 11 11 11 10 9 8 7 5 5 5 4 4 4 4 5 4 4 3 2 2 2 2 2 2 2 2 2 2
4 5 6 6 4 3 4 5 3 5 2 5 8 9 10 11 10 8 8 9 10 11 11 10 11 10 9 7 5 5 5 4 4 4 5 6 4 4 3 3 2 2 2 2 2 2 2 2 2
2 3 5 6 4 3 1 5 6 5 3 5 7 8 9 9 9 10 11 11 11 10 11 11 11 10 10 8 7 5 5 5 5 4 5 5 5 5 4 3 2 2 2 3 2 2 2 2 2
1 2 5 6 4 3 3 8 7 4 4 6 6 7 7 8 9 9 10 10 10 10 10 11 10 10 10 8 7 5 5 5 4 4 4 5 6 6 5 4 3 2 2 2 3 2 2 1 1
1 4 6 5 5 3 5 7 6 4 5 6 7 7 7 7 7 7 9 10 10 11 11 10 9 10 9 8 6 5 5 5 4 4 4 4 5 5 5 4 3 3 3 2 3 2 2 2 1
5 3 4 7 4 4 5 7 7 4 6 7 7 7 7 8 9 7 8 9 9 9 10 10 10 10 9 7 5 4 4 3 3 4 4 5 4 5 5 4 4 4 3 2 2 2 2 2 1
4 4 6 7 5 4 7 9 9 6 5 6 7 7 8 9 7 6 7 7 8 8 8 9 10 9 8 7 6 5 4 4 3 3 5 5 5 5 5 4 4 3 3 3 3 3 3 1 1
3 3 5 5 4 3 5 9 8 6 7 8 9 10 9 7 4 6 7 7 9 9 9 9 10 10 9 7 5 4 4 3 3 3 3 4 5 5 5 5 4 4 3 3 3 3 2 1 1
4 5 5 4 4 2 1 6 7 6 5 6 7 8 8 9 9 9 8 8 8 9 10 10 10 10 9 8 6 5 4 3 2 3 3 3 5 5 5 5 4 4 4 3 3 3 4 2 1
6 5 4 3 1 3 3 4 6 5 5 6 6 5 6 7 7 8 9 9 9 9 9 9 10 10 9 9 9 10 7 6 5 4 3 3 4 5 5 5 5 4 3 3 3 3 3 3 2
5 4 3 3 2 2 2 3 7 3 4 6 5 4 4 5 6 7 8 9 8 8 8 8 9 9 9 9 10 9 6 4 3 4 4 3 3 4 4 4 4 4 3 3 3 3 3 2 2
2 1 2 2 1 3 5 4 6 3 5 5 4 3 3 4 5 5 4 4 5 6 6 7 9 8 8 9 8 9 9 8 7 6 5 4 2 2 3 4 4 3 3 3 3 3 3 2 2
2 3 2 0 2 5 3 4 6 4 3 3 3 2 2 3 4 4 3 3 4 6 6 7 9 8 8 8 8 8 9 9 9 8 6 5 3 3 4 4 3 3 3 3 3 3 3 3 2
3 4 5 4 4 3 1 5 4 4 4 3 2 1 1 1 2 3 3 4 4 5 6 7 8 8 8 8 8 7 7 6 5 6 5 5 4 4 4 4 4 3 3 3 3 2 2 2 2
2 3 3 3 1 1 3 4 4 5 7 6 6 6 4 2 1 1 2 2 3 4 5 7 7 6 7 7 7 7 6 6 6 5 4 4 3 3 4 4 4 3 3 3 3 2 2 2 2
2 3 2 2 3 2 3 3 3 6 6 6 5 5 4 4 3 2 1 1 2 3 4 5 6 6 6 5 6 6 6 6 6 6 5 4 4 4 4 4 3 3 3 3 3 2 2 2 2
1 1 1 2 2 3 2 4 2 3 4 3 4 4 4 4 3 2 2 2 2 3 4 4 4 5 5 5 5 5 5 5 5 5 5 5 4 4 4 4 4 3 3 3 3 2 2 2 2
1 1 1 2 2 1 2 4 3 2 3 3 4 5 5 5 5 4 3 4 4 4 3 3 3 4 4 4 5 5 5 5 5 5 4 4 4 4 3 3 3 3 3 3 3 3 3 3 3
Wind_Direction
325 339 51 58 63 65 230 241 238 255 236 227 138 116 121 128 153 163 127 136 136 145 151 148 145 142 138 134 130 127 124 121 118 115 113 111 110 109 107 105 104 102 99 97 95 94 93 92 90
341 346 60 67 110 185 246 237 237 237 213 171 94 96 92 85 87 113 125 142 141 145 148 149 145 142 139 136 134 131 127 124 121 119 116 113 112 110 109 107 106 104 101 98 96 94 93 90 89
331 35 95 101 167 197 221 227 222 247 260 207 96 68 110 130 131 140 147 142 136 140 145 148 145 143 141 139 137 134 131 128 125 122 118 116 114 113 113 111 108 105 102 101 98 96 93 90 87
48 60 68 137 220 222 216 231 211 234 314 18 118 76 63 52 164 142 138 138 134 135 139 147 146 145 143 141 139 136 134 131 128 125 122 120 117 115 113 112 110 107 105 104 102 99 95 91 87
70 99 135 223 234 241 239 254 251 227 239 280 108 107 48 344 115 127 136 139 137 136 138 145 144 145 144 142 140 139 137 134 131 129 127 124 120 118 115 113 113 111 110 108 106 103 97 92 86
94 108 166 219 232 248 256 248 246 244 227 187 106 111 111 65 119 133 136 136 137 138 138 143 142 141 142 142 142 141 140 137 135 133 131 127 124 122 119 116 115 114 113 112 108 104 99 92 87
152 156 199 211 224 245 248 235 204 216 218 208 137 117 131 141 137 135 133 132 133 136 137 138 141 140 141 139 139 140 140 139 137 135 131 127 125 125 122 121 118 115 113 112 112 108 102 94 90
164 157 211 213 207 234 249 233 216 184 209 246 121 138 167 186 142 129 128 129 132 134 138 139 139 138 139 139 139 137 136 136 136 132 126 123 123 123 121 121 120 119 118 115 113 109 102 94 89
129 178 215 207 197 234 254 216 273 210 109 44 64 161 166 143 130 129 131 132 140 143 145 144 140 138 137 139 140 137 135 133 130 128 126 122 116 115 117 122 121 120 118 116 114 109 101 91 81
155 205 222 221 207 239 266 229 237 67 41 38 30 39 115 129 139 144 152 154 156 158 158 153 147 145 143 144 137 135 134 132 128 129 129 123 121 120 120 121 121 120 116 113 107 100 94 84 73
190 214 238 269 294 293 279 281 255 147 213 192 172 159 146 146 151 156 162 164 164 162 160 159 156 152 148 142 143 137 132 132 130 132 130 125 119 115 108 111 113 110 105 94 89 81 72 78 87
227 250 248 267 292 287 269 266 284 211 220 206 175 162 158 163 168 168 168 168 164 161 163 162 160 157 153 148 149 145 141 141 139 141 137 132 129 126 129 128 127 120 112 109 94 91 80 81 88
238 263 264 268 283 280 280 261 252 265 265 165 158 161 167 173 177 175 169 166 165 165 165 165 162 159 156 150 155 151 151 151 149 146 146 141 138 142 141 137 134 137 130 127 122 114 107 96 91
227 265 272 271 270 276 266 272 248 253 189 152 169 180 180 180 178 172 171 172 173 170 168 166 165 162 157 157 158 155 153 150 145 148 155 150 145 145 141 141 141 143 145 140 138 136 127 115 108
240 267 281 262 246 249 234 275 238 234 174 174 189 193 193 191 184 183 183 178 176 173 168 167 167 162 160 159 159 155 155 152 152 155 158 153 148 149 146 142 145 155 146 135 123 116 109 107 103
201 228 248 258 223 227 174 245 251 228 185 202 206 206 204 203 197 194 188 179 175 169 167 168 167 163 162 160 157 154 154 153 155 154 155 156 154 151 146 146 150 147 135 135 130 120 106 104 114
175 221 230 258 225 205 193 239 256 228 199 214 220 216 211 212 212 205 194 182 175 171 167 167 164 164 163 159 154 150 147 150 152 149 150 154 151 147 144 147 147 139 131 138 140 119 122 116 107
204 217 227 231 232 209 226 248 268 238 208 218 223 222 216 212 214 206 194 182 174 171 167 165 161 163 158 149 137 134 134 143 145 150 153 148 145 144 140 137 137 135 129 126 128 125 110 118 122
204 214 245 249 242 216 234 253 262 256 230 229 228 224 221 221 216 198 187 175 166 164 164 165 163 164 158 155 155 156 161 160 154 156 152 151 146 144 141 138 139 137 141 148 142 127 121 112 114
227 232 246 265 257 224 242 258 260 253 233 221 219 221 220 216 205 193 185 177 173 171 170 168 166 166 167 166 163 158 150 153 152 149 149 153 149 148 146 143 149 146 140 138 144 130 126 138 129
239 223 228 249 306 266 231 278 259 269 255 244 226 215 210 203 197 192 184 184 177 176 177 175 172 168 165 156 143 130 114 107 122 148 157 163 155 150 148 151 150 153 152 163 168 154 146 161 203
242 229 231 242 242 257 173 256 267 251 264 258 247 228 212 208 199 189 185 183 185 187 182 175 171 166 163 159 158 159 163 169 180 173 165 159 158 154 153 155 156 158 158 163 175 166 159 152 180
237 246 238 232 207 273 220 212 279 281 262 267 257 238 220 207 196 190 191 189 186 181 178 175 168 167 165 165 164 164 164 165 149 146 145 150 153 156 157 158 159 162 164 167 167 164 163 168 176
248 27 28 40 111 237 218 193 274 263 247 268 269 255 222 207 196 186 181 175 173 172 171 170 166 168 166 165 164 167 165 161 156 161 163 164 158 157 162 158 157 164 165 169 174 173 170 180 181
108 104 82 2 222 239 189 191 251 286 291 264 262 259 226 196 182 163 153 152 163 167 171 171 168 169 169 168 169 173 171 169 171 172 172 168 169 174 180 170 162 162 168 166 162 165 174 181 182
211 164 166 190 209 263 192 221 257 319 337 348 359 14 50 71 144 153 160 163 169 173 170 167 170 170 170 172 174 173 170 171 174 173 169 173 177 179 172 169 166 165 163 162 158 160 178 176 190
177 199 196 157 213 222 243 274 301 347 2 14 17 23 26 27 66 119 129 133 148 163 166 166 164 164 167 171 166 165 166 164 162 158 156 158 162 159 158 163 163 164 165 167 162 177 190 183 197
176 176 126 144 163 225 257 243 275 323 333 356 8 7 360 17 33 30 49 87 119 144 143 144 149 157 157 155 162 160 161 159 154 147 153 158 161 158 157 156 160 167 169 171 172 180 189 181 207
55 148 152 166 170 169 208 255 302 298 311 336 348 358 4 21 29 27 28 50 74 92 102 113 125 128 137 145 144 140 147 148 150 154 160 160 154 158 160 160 161 169 172 175 174 186 183 189 212
130 176 159 165 236 199 179 264 335 346 2 20 11 8 15 23 24 26 35 52 65 78 94 104 111 119 130 133 134 137 137 139 143 150 157 154 153 157 159 155 158 163 166 173 178 188 193 200 214